Regional Weather Roundup
Issued by NWS Northern Indiana

Home | Current Version | Previous Version | Graphics & Text | Print | Product List | Glossary On
Versions: 1 2 3 4 5 6 7 8 9 10 11 12 13 14 15 16 17 18 19 20 21 22 23 24 25 26 27 28 29 30 31 32 33 34 35 36 37 38 39 40 41 42 43 44 45 46 47 48 49 50
000
ASUS43 KIWX 190010
RWRIWX

KIWX WEATHER ROUNDUP
NATIONAL WEATHER SERVICE NORTHERN INDIANA
800 PM EDT FRI APR 18 2014

NOTE: "FAIR" INDICATES FEW OR NO CLOUDS BELOW 12,000 FEET WITH NO
SIGNIFICANT WEATHER AND/OR OBSTRUCTIONS TO VISIBILITY.

* THESE STATIONS ARE NOT UNDER NWS QUALITY CONTROL. THEY ALSO MAY NOT
  REPORT WEATHER SUCH AS PRECIPITATION OR FOG.

INZ001>027-190100-
NORTHERN INDIANA

CITY           SKY/WX    TMP DP  RH WIND       PRES   REMARKS
GARY*          CLEAR     41  32  70 NE10      30.35S
VALPARAISO     CLEAR     42  32  67 N13       30.32S
6HR MIN TEMP:  42; 6HR MAX TEMP:  53;

MICHIGAN CITY* CLEAR     39  30  70 NE7       30.34S
LAPORTE*       CLEAR     42  32  66 N15       30.32S
6HR MIN TEMP:  42; 6HR MAX TEMP:  53;

SOUTH BEND     CLEAR     45  33  63 N16       30.32
6HR MIN TEMP:  45; 6HR MAX TEMP:  59;

ELKHART*       CLEAR     48  32  53 N8        30.30S
GOSHEN         CLEAR     54  36  50 NW14      30.28R
6HR MIN TEMP:  54; 6HR MAX TEMP:  65;

MONTICELLO*    CLEAR     57  36  45 N17       30.25S
6HR MIN TEMP:  57; 6HR MAX TEMP:  67;

LOGANSPORT*    CLEAR     57  32  38 N14       30.26S
ROCHESTER*     CLEAR     55  34  44 N9        30.27S
WARSAW*        CLEAR     55  36  47 N12       30.27R
ANGOLA*        CLEAR     57  34  41 N10       30.25R
FORT WAYNE     PTCLDY    60  30  32 NW13      30.24R
6HR MIN TEMP:  60; 6HR MAX TEMP:  69;

HUNTINGTON*    FAIR      59  34  38 N8        30.23S
6HR MIN TEMP:  59; 6HR MAX TEMP:  67;

PERU/GRISSOM   CLEAR     60  35  39 N12       30.24S
6HR MIN TEMP:  60; 6HR MAX TEMP:  68;

MARION*        CLEAR     62  35  35 N9        30.23S
6HR MIN TEMP:  15; 6HR MAX TEMP:  77;


$$
INZ028>050-190100-
CENTRAL INDIANA

CITY           SKY/WX    TMP DP  RH WIND       PRES   REMARKS
LAFAYETTE      CLEAR     59  35  40 N15       30.24S
6HR MIN TEMP:  59; 6HR MAX TEMP:  67;

KOKOMO*          N/A    N/A N/A N/A MISG        N/A
MUNCIE*        CLEAR     62  39  42 NW9       30.22S
6HR MIN TEMP:  62; 6HR MAX TEMP:  69;

INDIANAPOLIS   PTCLDY    63  39  41 N9        30.21S
6HR MIN TEMP:  63; 6HR MAX TEMP:  70;


$$
MIZ043>046-050>051-056>058-064>065-071>073-077>080-190100-
SOUTHWEST LOWER MICHIGAN

CITY           SKY/WX    TMP DP  RH WIND       PRES   REMARKS
BATTLE CREEK   CLEAR     52  32  46 NW13      30.28S
6HR MIN TEMP:  52; 6HR MAX TEMP:  63;

BENTON HARBOR  CLEAR     38  28  67 VRB6      30.34S
6HR MIN TEMP:  38; 6HR MAX TEMP:  47;

COLDWATER*     CLEAR     55  31  39 NW9       30.26R
6HR MIN TEMP:  55; 6HR MAX TEMP:  63;

HILLSDALE*     CLEAR     58  30  34 NW12      30.24S
6HR MIN TEMP:  58; 6HR MAX TEMP:  65;

HOLLAND        CLEAR     42  29  59 NW9       30.33F
6HR MIN TEMP:  42; 6HR MAX TEMP:  54;

GRAND RAPIDS   PTCLDY    52  32  46 W10       30.29S
6HR MIN TEMP:  52; 6HR MAX TEMP:  61;

KALAMAZOO      CLEAR     50  31  48 NW16      30.29S
6HR MIN TEMP:  50; 6HR MAX TEMP:  63;

STURGIS*       CLEAR     54  34  47 NW10      30.27R
THREE RIVERS*  FAIR      51  34  51 NW9       30.29S
6HR MIN TEMP:  51; 6HR MAX TEMP:  64;


$$
OHZ001>008-015>018-024>025-190100-
NORTHWEST OHIO

CITY           SKY/WX    TMP DP  RH WIND       PRES   REMARKS
WAUSEON*       FAIR      61  34  36 NW5       30.22S
DEFIANCE       CLEAR     62  31  31 NW10      30.22S
6HR MIN TEMP:  62; 6HR MAX TEMP:  69;

FINDLAY        CLEAR     63  39  41 NW7       30.20S
6HR MIN TEMP:  63; 6HR MAX TEMP:  69;

TOLEDO EXPRESS CLEAR     56  40  55 NE13      30.22R
6HR MIN TEMP:  56; 6HR MAX TEMP:  67;

TOLEDO METCALF CLEAR     55  41  59 NE8       30.24R
6HR MIN TEMP:  55; 6HR MAX TEMP:  69;

LIMA           CLEAR     62  40  44 NW9       30.21S
6HR MIN TEMP:  62; 6HR MAX TEMP:  69;


$$
&&



USA.gov is the U.S. government's official web portal to all federal, state and local government web resources and services.